When you browse on this site, cookies collect data to enhance your experience and personalize the content and advertising you see.
Visit our Privacy Policy to learn more. By continuing to use the site, you agree to this use of cookies and data.
  • En España
  • Lista de países
  • Para 7 días
  • Temperatura del agua
  • Mapa Satelital
  • El tiempo en el mapa
  • Informadores
  • user-avatar
    Iniciar sesión

    Tiempo cada hora Perth

    Hoy, 18 Enero, Viernes

    Tiempo Temperatura Precipitaciones Viento Presión Humedad
    00:00 +19°C° 0 mm 4 mps 760 mmHg 73%
    01:00 +19°C° 0 mm 4 mps 760 mmHg 69%
    02:00 +19°C° 0 mm 3 mps 760 mmHg 66%
    03:00 +19°C° 0 mm 3 mps 760 mmHg 66%
    04:00 +19°C° 0 mm 3 mps 760 mmHg 67%
    05:00 +19°C° 0 mm 4 mps 760 mmHg 67%
    06:00 +20°C° 0 mm 4 mps 761 mmHg 64%
    07:00 +21°C° 0 mm 4 mps 761 mmHg 60%
    08:00 +22°C° 0 mm 3 mps 762 mmHg 57%
    09:00 +25°C° 0 mm 3 mps 762 mmHg 48%
    10:00 +27°C° 0 mm 2 mps 761 mmHg 38%
    11:00 +30°C° 0 mm 2 mps 761 mmHg 29%
    12:00 +31°C° 0 mm 3 mps 761 mmHg 27%
    13:00 +33°C° 0 mm 3 mps 760 mmHg 25%
    14:00 +35°C° 0 mm 2 mps 760 mmHg 23%
    15:00 +34°C° 0 mm 3 mps 760 mmHg 24%
    16:00 +34°C° 0 mm 3 mps 759 mmHg 25%
    17:00 +34°C° 0 mm 4 mps 759 mmHg 25%
    18:00 +32°C° 0 mm 4 mps 759 mmHg 30%
    19:00 +28°C° 0 mm 3 mps 760 mmHg 35%
    20:00 +25°C° 0 mm 2 mps 760 mmHg 41%
    21:00 +25°C° 0 mm 2 mps 760 mmHg 39%
    22:00 +25°C° 0 mm 2 mps 760 mmHg 37%
    23:00 +24°C° 0 mm 2 mps 760 mmHg 35%

    Mañana, 19 Enero, Sábado

    Tiempo Temperatura Precipitaciones Viento Presión Humedad
    00:00 +25°C° 0 mm 3 mps 760 mmHg 33%
    01:00 +25°C° 0 mm 4 mps 760 mmHg 31%
    02:00 +26°C° 0 mm 5 mps 760 mmHg 29%
    03:00 +25°C° 0 mm 5 mps 760 mmHg 34%
    04:00 +25°C° 0 mm 5 mps 760 mmHg 38%
    05:00 +23°C° 0 mm 6 mps 760 mmHg 42%
    06:00 +26°C° 0 mm 6 mps 760 mmHg 40%
    07:00 +27°C° 0 mm 6 mps 760 mmHg 38%
    08:00 +28°C° 0 mm 5 mps 760 mmHg 36%
    09:00 +32°C° 0 mm 5 mps 760 mmHg 32%
    10:00 +35°C° 0 mm 4 mps 760 mmHg 29%
    11:00 +38°C° 0 mm 3 mps 759 mmHg 25%
    12:00 +39°C° 0 mm 3 mps 759 mmHg 23%
    13:00 +41°C° 0 mm 2 mps 758 mmHg 21%
    14:00 +42°C° 0 mm 2 mps 758 mmHg 18%
    15:00 +42°C° 0 mm 3 mps 758 mmHg 20%
    16:00 +41°C° 0 mm 4 mps 757 mmHg 21%
    17:00 +40°C° 0 mm 5 mps 757 mmHg 23%
    18:00 +37°C° 0 mm 5 mps 757 mmHg 25%
    19:00 +35°C° 0 mm 5 mps 757 mmHg 27%
    20:00 +33°C° 0 mm 5 mps 757 mmHg 29%
    21:00 +32°C° 0 mm 5 mps 758 mmHg 28%
    22:00 +32°C° 0 mm 4 mps 758 mmHg 26%
    23:00 +30°C° 0 mm 4 mps 758 mmHg 24%

    Pasado mañana, 20 Enero, Domingo

    Tiempo Temperatura Precipitaciones Viento Presión Humedad
    00:00 +30°C° 0 mm 4 mps 758 mmHg 26%
    01:00 +29°C° 0 mm 3 mps 758 mmHg 27%
    02:00 +29°C° 0 mm 3 mps 757 mmHg 29%
    03:00 +29°C° 0 mm 3 mps 757 mmHg 29%
    04:00 +29°C° 0 mm 3 mps 757 mmHg 30%
    05:00 +29°C° 0 mm 3 mps 757 mmHg 30%
    06:00 +32°C° 0 mm 4 mps 757 mmHg 29%
    07:00 +34°C° 0 mm 4 mps 757 mmHg 27%
    08:00 +36°C° 0 mm 4 mps 758 mmHg 25%
    09:00 +38°C° 0 mm 4 mps 757 mmHg 22%
    10:00 +41°C° 0 mm 4 mps 757 mmHg 20%
    11:00 +43°C° 0 mm 3 mps 757 mmHg 17%
    12:00 +44°C° 0 mm 4 mps 756 mmHg 17%
    13:00 +44°C° 0 mm 4 mps 756 mmHg 17%
    14:00 +44°C° 0 mm 4 mps 755 mmHg 17%
    15:00 +43°C° 0 mm 4 mps 755 mmHg 19%
    16:00 +42°C° 0 mm 5 mps 754 mmHg 21%
    17:00 +41°C° 0 mm 5 mps 754 mmHg 22%
    18:00 +38°C° 0 mm 4 mps 754 mmHg 26%
    19:00 +35°C° 0 mm 4 mps 754 mmHg 29%
    20:00 +33°C° 0 mm 3 mps 755 mmHg 33%
    21:00 +31°C° 0 mm 3 mps 755 mmHg 34%
    22:00 +30°C° 0 mm 2 mps 755 mmHg 36%
    23:00 +29°C° 0 mm 2 mps 756 mmHg 37%

    21 Enero, Lunes

    Tiempo Temperatura Precipitaciones Viento Presión Humedad
    00:00 +29°C° 0 mm 2 mps 755 mmHg 37%
    01:00 +29°C° 0 mm 2 mps 755 mmHg 37%
    02:00 +28°C° 0 mm 1 mps 754 mmHg 37%
    03:00 +28°C° 0 mm 1 mps 754 mmHg 38%
    04:00 +28°C° 0 mm 1 mps 754 mmHg 39%
    05:00 +27°C° 0 mm 1 mps 754 mmHg 40%
    06:00 +29°C° 0 mm 1 mps 754 mmHg 38%
    07:00 +31°C° 0 mm 2 mps 754 mmHg 37%
    08:00 +32°C° 0 mm 2 mps 755 mmHg 35%
    09:00 +35°C° 0 mm 3 mps 754 mmHg 34%
    10:00 +36°C° 0 mm 4 mps 754 mmHg 32%
    11:00 +38°C° 0 mm 4 mps 754 mmHg 31%
    12:00 +37°C° 0 mm 5 mps 753 mmHg 32%
    13:00 +38°C° 0 mm 6 mps 753 mmHg 32%
    14:00 +38°C° 0 mm 7 mps 753 mmHg 33%
    15:00 +35°C° 0 mm 7 mps 752 mmHg 34%
    16:00 +34°C° 0 mm 7 mps 752 mmHg 35%
    17:00 +33°C° 0 mm 7 mps 752 mmHg 36%
    18:00 +30°C° 0 mm 7 mps 753 mmHg 39%
    19:00 +29°C° 0 mm 6 mps 753 mmHg 43%
    20:00 +28°C° 0 mm 6 mps 754 mmHg 46%
    21:00 +27°C° 0.6 mm 5 mps 754 mmHg 51%
    22:00 +26°C° 0.6 mm 4 mps 755 mmHg 55%
    23:00 +26°C° 0.6 mm 4 mps 755 mmHg 60%

    22 Enero, Martes

    Tiempo Temperatura Precipitaciones Viento Presión Humedad
    00:00 +25°C° 0.3 mm 4 mps 755 mmHg 59%
    01:00 +25°C° 0.3 mm 4 mps 755 mmHg 59%
    02:00 +23°C° 0.3 mm 4 mps 754 mmHg 58%
    03:00 +23°C° 0.1 mm 4 mps 754 mmHg 59%
    04:00 +22°C° 0.1 mm 3 mps 754 mmHg 60%
    05:00 +21°C° 0.1 mm 3 mps 754 mmHg 61%
    06:00 +24°C° 0 mm 3 mps 754 mmHg 56%
    07:00 +25°C° 0 mm 3 mps 755 mmHg 51%
    08:00 +26°C° 0 mm 4 mps 755 mmHg 46%
    09:00 +28°C° 0 mm 3 mps 755 mmHg 41%
    10:00 +31°C° 0 mm 3 mps 754 mmHg 35%
    11:00 +34°C° 0 mm 3 mps 754 mmHg 30%
    12:00 +35°C° 0 mm 3 mps 754 mmHg 31%
    13:00 +36°C° 0 mm 4 mps 753 mmHg 31%
    14:00 +36°C° 0 mm 4 mps 753 mmHg 32%
    15:00 +35°C° 0 mm 5 mps 752 mmHg 37%
    16:00 +33°C° 0 mm 5 mps 752 mmHg 41%
    17:00 +30°C° 0 mm 5 mps 752 mmHg 45%
    18:00 +28°C° 0 mm 5 mps 752 mmHg 54%
    19:00 +27°C° 0 mm 4 mps 752 mmHg 63%
    20:00 +25°C° 0 mm 4 mps 753 mmHg 71%
    21:00 +23°C° 0 mm 4 mps 753 mmHg 74%
    22:00 +23°C° 0 mm 4 mps 754 mmHg 76%
    23:00 +22°C° 0 mm 4 mps 754 mmHg 79%

    23 Enero, Miércoles

    Tiempo Temperatura Precipitaciones Viento Presión Humedad
    00:00 +22°C° 0 mm 4 mps 754 mmHg 79%
    01:00 +22°C° 0 mm 5 mps 754 mmHg 80%
    02:00 +21°C° 0 mm 5 mps 754 mmHg 81%
    03:00 +21°C° 0.1 mm 5 mps 754 mmHg 78%
    04:00 +20°C° 0.1 mm 6 mps 754 mmHg 75%
    05:00 +20°C° 0.1 mm 6 mps 754 mmHg 72%
    06:00 +20°C° 0 mm 6 mps 755 mmHg 67%
    07:00 +20°C° 0 mm 5 mps 755 mmHg 62%
    08:00 +21°C° 0 mm 5 mps 756 mmHg 57%
    09:00 +21°C° 0 mm 6 mps 756 mmHg 56%
    10:00 +21°C° 0 mm 6 mps 756 mmHg 56%
    11:00 +22°C° 0 mm 7 mps 756 mmHg 55%
    12:00 +22°C° 0 mm 8 mps 756 mmHg 52%
    13:00 +23°C° 0 mm 8 mps 755 mmHg 49%
    14:00 +23°C° 0 mm 9 mps 755 mmHg 46%
    15:00 +22°C° 0 mm 9 mps 756 mmHg 49%
    16:00 +22°C° 0 mm 8 mps 756 mmHg 52%
    17:00 +21°C° 0 mm 8 mps 756 mmHg 55%
    18:00 +20°C° 0.1 mm 8 mps 756 mmHg 59%
    19:00 +20°C° 0.1 mm 7 mps 757 mmHg 63%
    20:00 +18°C° 0.1 mm 7 mps 757 mmHg 68%
    21:00 +19°C° 0 mm 6 mps 757 mmHg 69%
    22:00 +19°C° 0 mm 6 mps 757 mmHg 70%
    23:00 +19°C° 0 mm 6 mps 757 mmHg 71%
    Mostrar más